This is the latest recevied weather packets stored in our database for station/object KJ5EHN. If no packets are shown the sender has not sent any weather packets the latest 1 day(s).
| Time | Temp. | Humidity | Pressure | Rain* | Wind** | Luminosity | Snow |
|---|---|---|---|---|---|---|---|
| 1778046891 | 13.89° C | 78% | 1009.8 hPa | 0 mm | 0.89 m/s, 249° | - | - |
| 1778046587 | 13.89° C | 78% | 1010 hPa | 0 mm | 0.45 m/s, 95° | - | - |
| 1778046284 | 13.89° C | 79% | 1010 hPa | 0 mm | 0.45 m/s, 209° | - | - |
| 1778045980 | 13.89° C | 79% | 1010.1 hPa | 0 mm | 0.45 m/s, 258° | - | - |
| 1778045678 | 13.89° C | 79% | 1009.9 hPa | 0 mm | 0.45 m/s, 163° | - | - |
| 1778045376 | 13.89° C | 79% | 1009.7 hPa | 0 mm | 0.45 m/s, 120° | - | - |
| 1778045075 | 14.44° C | 80% | 1010.1 hPa | 0 mm | 0.89 m/s, 125° | - | - |
| 1778044772 | 13.89° C | 80% | 1010 hPa | 0 mm | 0.89 m/s, 186° | - | - |
| 1778044468 | 14.44° C | 80% | 1009.9 hPa | 0 mm | 0.89 m/s, 167° | - | - |
| 1778044165 | 14.44° C | 80% | 1010.1 hPa | 0 mm | 0.45 m/s, 198° | - | - |
| 1778043863 | 14.44° C | 80% | 1009.8 hPa | 0 mm | 0.45 m/s, 271° | - | - |
| 1778043560 | 14.44° C | 80% | 1009.8 hPa | 0 mm | 0.89 m/s, 337° | - | - |
| 1778043257 | 14.44° C | 80% | 1009.8 hPa | 0 mm | 0.45 m/s, 113° | - | - |
| 1778042953 | 14.44° C | 80% | 1009.9 hPa | 0 mm | 0.89 m/s, 111° | - | - |
| 1778042652 | 14.44° C | 80% | 1009.6 hPa | 0 mm | 0.89 m/s, 42° | - | - |
| 1778042349 | 14.44° C | 80% | 1009.8 hPa | 0 mm | 0.89 m/s, 320° | - | - |
| 1778042046 | 14.44° C | 80% | 1009.5 hPa | 0 mm | 1.34 m/s, 135° | - | - |
| 1778041744 | 15° C | 80% | 1009.6 hPa | 0 mm | 0.45 m/s, 143° | - | - |
| 1778041443 | 15° C | 80% | 1009.8 hPa | 0 mm | 1.34 m/s, 156° | - | - |
| 1778041140 | 15° C | 80% | 1009.6 hPa | 0 mm | 1.34 m/s, 274° | - | - |
| 1778040837 | 15.56° C | 81% | 1009.6 hPa | 0 mm | 0.45 m/s, 191° | - | - |
| 1778040534 | 15.56° C | 81% | 1009.4 hPa | 0 mm | 0.89 m/s, 79° | - | - |
| 1778040232 | 15.56° C | 81% | 1009.4 hPa | 0 mm | 0.89 m/s, 58° | - | - |
| 1778039928 | 16.11° C | 80% | 1009.4 hPa | 0 mm | 0.89 m/s, 231° | - | - |
| 1778039626 | 16.11° C | 81% | 1009.3 hPa | 0 mm | 0.45 m/s, 108° | - | - |
* Rain latest hour (hover to see other rain measurements)
** Current wind speed in m/s (hover to see current wind gust speed)